TimeCDT,TemperatureF,Dew PointF,Humidity,Sea Level PressureIn,VisibilityMPH,Wind Direction,Wind SpeedMPH,Gust SpeedMPH,PrecipitationIn,Events,Conditions,WindDirDegrees,DateUTC
12:53 AM,61.0,51.1,70,29.91,10.0,SSW,4.6,-,N/A,,Clear,210,2013-05-05 05:53:00
1:53 AM,61.0,52.0,72,29.89,10.0,SSW,4.6,-,N/A,,Clear,200,2013-05-05 06:53:00
2:53 AM,63.0,54.0,72,29.87,10.0,SSW,4.6,-,N/A,,Mostly Cloudy,210,2013-05-05 07:53:00
3:53 AM,64.0,57.0,78,29.86,10.0,West,8.1,-,N/A,,Mostly Cloudy,260,2013-05-05 08:53:00
4:21 AM,62.6,55.4,77,29.86,10.0,Variable,4.6,-,N/A,,Mostly Cloudy,0,2013-05-05 09:21:00
4:53 AM,61.0,55.9,83,29.87,10.0,Variable,4.6,-,N/A,,Overcast,0,2013-05-05 09:53:00
5:53 AM,57.0,51.1,81,29.88,10.0,Calm,Calm,-,N/A,,Clear,0,2013-05-05 10:53:00
6:53 AM,55.0,51.1,86,29.91,10.0,NW,3.5,-,N/A,,Clear,320,2013-05-05 11:53:00
7:53 AM,55.9,48.9,77,29.94,10.0,Variable,5.8,-,N/A,,Clear,0,2013-05-05 12:53:00
8:53 AM,57.0,46.9,69,29.95,10.0,NNW,10.4,16.1,N/A,,Clear,330,2013-05-05 13:53:00
9:53 AM,59.0,44.1,58,29.95,10.0,NW,12.7,18.4,N/A,,Clear,310,2013-05-05 14:53:00
10:53 AM,61.0,42.1,50,29.95,10.0,NW,12.7,23.0,N/A,,Clear,320,2013-05-05 15:53:00
11:53 AM,62.1,42.1,48,29.96,10.0,WNW,10.4,19.6,N/A,,Clear,290,2013-05-05 16:53:00
1:53 PM,64.0,41.0,43,29.95,10.0,NW,11.5,19.6,N/A,,Partly Cloudy,320,2013-05-05 18:53:00
2:53 PM,64.0,42.1,45,29.94,10.0,NW,9.2,-,N/A,,Clear,320,2013-05-05 19:53:00
3:53 PM,66.0,42.1,42,29.94,10.0,NW,11.5,-,N/A,,Partly Cloudy,310,2013-05-05 20:53:00
4:53 PM,64.9,42.1,43,29.94,10.0,North,12.7,20.7,N/A,,Partly Cloudy,360,2013-05-05 21:53:00
5:53 PM,64.0,42.1,45,29.95,10.0,NNW,11.5,21.9,N/A,,Partly Cloudy,330,2013-05-05 22:53:00
6:53 PM,62.1,42.1,48,29.96,10.0,NNW,9.2,-,N/A,,Partly Cloudy,340,2013-05-05 23:53:00
7:53 PM,57.0,43.0,59,29.99,10.0,NNW,4.6,-,N/A,,Clear,340,2013-05-06 00:53:00
8:53 PM,54.0,44.1,69,30.01,10.0,Calm,Calm,-,N/A,,Clear,0,2013-05-06 01:53:00
9:53 PM,51.1,46.0,83,30.04,10.0,Calm,Calm,-,N/A,,Clear,0,2013-05-06 02:53:00
10:53 PM,50.0,45.0,83,30.04,10.0,Calm,Calm,-,N/A,,Clear,0,2013-05-06 03:53:00
11:53 PM,48.0,45.0,89,30.04,10.0,Calm,Calm,-,N/A,,Clear,0,2013-05-06 04:53:00